Notices

What's New in latest Release from April 7th, 2021:

- Updated Glossary, including Speed of Maximum Gust, and Total Hourly Precipitation

- Updated national and regional climate services offices contacts and prices information

- Addition of station inventory lists for 1981-2010, 1971-2000, and 1961-1990 Normals.

If you haven't already, please take our survey and provide feedback about our website: https://eccc.sondage-survey.ca/f/LanguageSelection.aspx?s=442ca660-fcf1-47c0-95a9-59707d6fd709

Hourly Data Report for July 24, 2020

OTTAWA INTL A
ONTARIO
Current Station Operator: NAVCAN

45°19'00.000" N
75°40'00.000" W
114.90 m
6106001
71628
YOW

Download Data

Hourly Data (July 2020)
Hourly Data Report for July 24, 2020
TIME
LST
Temp Definition
°C
Dew Point Definition
°C
Rel Hum Definition
%
Precip. Amount Definition
mm

Wind Dir Definition
10's deg

Wind Spd Definition
km/h
Visibility Definition
km
Stn Press Definition
kPa
Hmdx Definition


Wind Chill Definition


Weather Definition


00:00 18.6 16.1 85   33 12 24.1 100.58     LegendNANA
01:00 17.1 15.4 90   34 10 24.1 100.58     Clear
02:00 16.2 15.0 92   32 8 24.1 100.59     LegendNANA
03:00 17.1 15.5 90   34 12 24.1 100.57     LegendNANA
04:00 15.5 15.0 97   32 12 24.1 100.62     Mainly Clear
05:00 15.8 15.1 95   31 8 24.1 100.67     LegendNANA
06:00 17.5 16.3 93   30 7 24.1 100.71     LegendNANA
07:00 20.0 17.0 83   31 9 24.1 100.74 25   Mainly Clear
08:00 22.3 17.3 73   32 7 24.1 100.76 28   LegendNANA
09:00 24.5 15.7 58   3 3 24.1 100.76 29   LegendNANA
10:00 26.9 15.3 48   5 4 24.1 100.77 31   Mainly Clear
11:00 27.7 13.6 41   36 3 24.1 100.73 31   LegendNANA
12:00 29.1 12.1 34   5 11 24.1 100.69 31   LegendNANA
13:00 29.8 12.8 35   3 10 24.1 100.64 32   Mainly Clear
14:00 27.6 12.7 39   34 9 24.1 100.62 30   LegendNANA
15:00 29.6 14.2 38   35 4 24.1 100.56 33   LegendNANA
16:00 28.7 11.9 35   25 8 24.1 100.51 31   Mainly Clear
17:00 29.5 12.8 35   19 10 24.1 100.46 32   LegendNANA
18:00 29.1 12.9 36   16 4 24.1 100.44 32   LegendNANA
19:00 27.1 12.9 41   31 9 24.1 100.45 30   Mainly Clear
20:00 24.6 13.0 48   13 5 24.1 100.44 27   LegendNANA
21:00 21.4 13.3 60   17 5 24.1 100.50     LegendNANA
22:00 21.7 13.1 57   19 8 24.1 100.47 25   Clear
23:00 20.8 13.1 61   19 7 24.1 100.49     LegendNANA

Notes on Data Quality.

Legend

  • E = Estimated
  • M = Missing
  • NA = Not Available*
  • [empty] = Indicates an unobserved value
Date modified: